THORAD DELTA 1 DEB, 42614

Orbit data source: Space-Track

THORAD DELTA 1 DEB, 42614 is space debris in SSO originally from a launch on Fri, 15 Nov 1974 UTC launched from the Air Force Western Test Range (AFWTR). Debris objects in space refer to the collection of defunct objects orbiting the Earth. Examples of debris include non-operational satellites, rocket bodies, and fragments generated from explosions, collisions, or faulty payload assembly.

Loading next visibility...
Identifier
42614, 1974-089GF
Orbit
SSO
Country
Flag of USUS
Related business
Manufacturer
Unknown
Mission
Spacecraft
Bus & Motor
Unknown
Mass
Unknown
Launch date (UTC)
1974-11-15 (51 years ago)
Launch vehicle
Unknown
Launch site
Air Force Western Test Range (AFWTR)
Object type
Payload
Rocket body
Debris
Shape & HBR
Unknown shape, 0.1 m
Radar Cross Section
Small (<0.1 m²)

Expand to show TLE details & history
Last TLE update: 3 days ago

TLE from 3 days ago
0 THORAD DELTA 1 DEB
1 42614U 74089GF  26069.19483374  .00000600  00000-0  37258-2 0  9990
2 42614 101.8708 227.9654 0031590 354.3606 189.8141 12.59811544523512
Epoch: 2026-03-10T04:40Z
TLE epoch observation values (Epoch: 2026-03-10T04:40:33.635Z)
Latitude
-4.15304°
Longitude
169.0781°
Altitude
1,451.231 km
Speed
7.125 km/s
True Right ascension
03h 08m 22s
True Declination
-4° 07' 50"
Sunlit
Object was in daylight at epoch
Visualization orbit readout
Latitude
Unknown
Longitude
Unknown
Altitude
Unknown
Speed
Unknown
Apparent Right ascension
Unknown
Apparent Declination
Unknown
Sunlit
N/A
Visualization observer readout
Local Sidereal Time
13:01:39
Azimuth
Unknown
Elevation
Unknown
Doppler factor
Unknown
Orbital elements
Apogee altitude
1,445.902 km
Perigee altitude
1,396.625 km
Semi-major axis
7,799.401 km
Eccentricity
0.00316
Inclination
101.8708°
RAAN
227.9654°
Arg. of periapsis
354.3606°
True anomaly
189.75264°
Mean anomaly
189.8141°
Eccentric anomaly
189.78334°
Mean motion
3.15102 °/min
Orbital period
114.25 mins
BSTAR
0.0037258
Loading maneuver chart data...
Computing Atmospheric mass density...

Documentation

Showing up to 5 results
|